STARLINK-1213 (45400 NORAD) Tracking and Keplerian Element Data

This shows tracking and keplerian element data for the satellite.

Feedback or suggestion? Click here.




ElementValue
Catalog45400
NameSTARLINK-1213
Epoch Orbit178
Epoch Day145.08334491
Epoch Year2020
RAAN288.3165
Inclination53.0001
Eccentricity0.00016
Argument of Perigee52.9114
Mean Anonmoly105.7612
Mean Motion15.62765265
Decay Rate-0.00023465
L11 45400U 20019AS 20145.08334491 -.00023465 00000-0 -25103-3 0 9995
L22 45400 53.0001 288.3165 0001600 52.9114 105.7612 15.62765265 1789

Live tracking and technical data element details for STARLINK-1213 (NORAD 45400). STARLINK-1213 can be tracked NOW for your location showing map with azimuth and elevation plus other details from your city location.

Track the satellite on the map from your city or location and see movement details for azimuth, elevation, latitude, longitude, range, height, and movement on the map or in text.







IsCatalogInMostPopularTable: catalog: 45400, numindb: 16
Update: records affected: 1



GetName: 45400 STARLINK-1213

Hit Count: updated at: Tue, 26 May 2020 02:11:31 GMT